Regional Weather Roundup
Issued by NWS

Home | Current Version | Previous Version | Graphics & Text | Print | Product List | Glossary On
Versions: 1 2 3 4 5 6 7 8 9 10 11 12 13 14 15 16 17 18 19 20 21 22 23 24 25 26 27 28 29 30 31 32 33 34 35 36 37 38 39 40 41 42 43 44 45 46 47 48 49 50
000
ASUS43 KLMK 250610
RWRKY
KENTUCKY REGIONAL WEATHER ROUNDUP
NATIONAL WEATHER SERVICE LOUISVILLE KY
200 AM EDT THU AUG 25 2016

NOTE "FAIR" INDICATES FEW OR NO CLOUDS BELOW 12,000 FEET
WITH NO SIGNIFICANT WEATHER AND/OR OBSTRUCTIONS TO VISIBILITY.

KYZ001>023-026-027-061>063-070>075-250700-
WESTERN AND SOUTH CENTRAL KENTUCKY

CITY           SKY/WX    TMP DP  RH WIND       PRES   REMARKS
PADUCAH        CLEAR     78  73  84 CALM      30.07R
HENDERSON      CLEAR     75  72  88 SW3       30.06R
OWENSBORO      CLEAR     77  76  96 S6        30.08R
HOPKINSVILLE   CLEAR     78  74  87 S3        30.09S
BOWLING GREEN  CLEAR     78  73  84 S5        30.10S
GLASGOW        CLEAR     74  74 100 CALM      30.12S
$$

KYZ024-025-028>034-038-045-046-053-250700-
NORTH CENTRAL KENTUCKY

CITY           SKY/WX    TMP DP  RH WIND       PRES   REMARKS
LOUISVILLE/SDF PTCLDY    82  72  71 SW10      30.07S
LOUISVILLE/LOU CLEAR     81  72  74 S5        30.08S
FORT KNOX      CLEAR     76  73  90 S7        30.08S
$$

KYZ035>037-039>044-047>052-055>060-089>105-250700-
NORTHEAST KENTUCKY

CITY           SKY/WX    TMP DP  RH WIND       PRES   REMARKS
LEXINGTON      CLEAR     76  70  82 S8        30.12S
COVINGTON      CLEAR     77  73  87 SW6       30.07F
FRANKFORT      CLEAR     76  71  85 SW6       30.09S
$$

KYZ054-064>069-076>088-106>120-250700-
SOUTHEAST KENTUCKY

CITY           SKY/WX    TMP DP  RH WIND       PRES   REMARKS
JACKSON        PTCLDY    74  70  87 CALM      30.16R
LONDON         CLEAR     72  69  90 CALM      30.16R
SOMERSET       CLEAR     72  72 100 CALM      30.15S
MIDDLESBORO    CLEAR     70  69  99 CALM      30.18S
MONTICELLO     CLEAR    N/A N/A N/A VRB7      30.16S
$$





USA.gov is the U.S. government's official web portal to all federal, state and local government web resources and services.